Terminal Aerodrome Forecast
Issued by NWS Goodland, KS

Home | Current Version | Previous Version | Text Only | Print | Product List | Glossary On
Versions: 1 2 3 4 5 6 7 8 9 10 11 12 13 14 15 16 17
000
FTUS43 KGLD 280500
TAFGLD
TAF
KGLD 280529Z 2806/2906 VRB06KT P6SM SCT160 BKN250
     FM281600 17013G20KT P6SM SCT045 BKN200
     FM290100 17010KT P6SM FEW050 BKN250=

USA.gov is the U.S. government's official web portal to all federal, state and local government web resources and services.